Погода в Аккудуке

Погода в Аккудуке : погода сейчас, прогноз погоды и архив. Всё, что Вы хотите узнать о погоде в Аккудуке!

Хотите узнать прогноз погоды в Аккудуке? Тогда Вам сюда: Погода в Аккудуке

Поиск расширенной информации на нашем сайте:

Другие новости

Новости СМИ2

Главная страница сайта

Новости сайта

02.10.2013

Напоминаем, что на нашем новом сайте вы можете получить высокодетализированные прогнозы погоды по пунктам России, СНГ и мира (включающие важные для авиации метеовеличины, такие как направление и скорость ветра, видимость, явления погоды, количество и форма облачности, нижняя и верхняя граница облачности), а также ознакомиться с разнообразными материалами по авиационной метеорологии и подборкой полезных ссылок на эту тему.

Сайт Метеоцентр.Азия посвящён разработке технологий оптимизации авиаметеорологического обслуживания, включая проектирование и перспективное создание нескольких автоматизированных авиаметеорологических систем:
- система выпуска высокодетальных прогностических карт явлений погоды для нижнего воздушного пространства по России и ближнему зарубежью;
- система верификации прогнозов TAF (выпускаемых синоптиками официальных АМСГ РФ и ближнего зарубежья) и AUTOTAF (выпускаемых сайтом Метеоцентр.Азия) - выявление ошибок, онлайн-сопоставление с фактической погодой METAR, автоматическое внесение коррективов в прогнозы при резком отклонении фактической погоды от прогноза, подсчёт оправдываемости прогнозов по элементам и в целом;
- система обработки, анализа и отображения авиаметеорологической информации для применения провайдерами метеорологической информации.

Рекомендуем: Кондиционеры Panasonic inverter

Погода в Аккудуке - сегодня

Время (UTC), дата Ветер
(°,м/с) 
Видим.   Явления Облачность Т
(°С)
Тd
(°С)
f(%) Тe
(°С)
Pmin
(гПа)
dP
(гПа)
Po
(мм)
O2
(г/м3)
Тmin Tmax R s Состояние
почвы
00 24.03.17 080 (В) 20000 м    ясно 
+4.5 +3 90 +5  1025.1  0.4  761  301           
03 24.03.17 тихо ()   20000 м    9/0 средняя, верхняя 
[Ac cast|Cs]
+3 +1.6 91 +3  1026  0.9  762  303           
06 24.03.17 110 (В) 20000 м    5/0 средняя 
[Ac cast]
+9.6 +2.2 60 +10  1027.2  1.5  763  297  +2.4         
09 24.03.17 110 (В) 20000 м    4/0 средняя 
[Ac cast]
+13.1 +0.4 42 +13  1026.2  -1  762  293           
12 24.03.17 010 (С) 20000 м    8/8 600 м 
[Cu med, cong]
+14.1 -1.6 34 +14  1024.9  -1.1  762  292           
15 24.03.17 090 (В) 20000 м    9/6 600 м средняя 
[Sc|Ac cast]
+10.9 +1.2 51 +11  1026.3  1.2  762  295    +14.4       
18 24.03.17 110 (В) 20000 м    9/6 600 м средняя 
[Sc|Ac cast]
+9 +2.9 66 +10  1027.6  1.2  763  297    +14.4       
21 24.03.17 130 (ЮВ) 20000 м    8/5 600 м средняя 
[Sc|Ac cast]
+6.9 +4.1 82 +7  1027.9  0.2  764  299           
00 25.03.17 150 (ЮВ) 20000 м    5/3 600 м средняя 
[Sc|Ac cast]
+4.8 +5.4 100 +4  1028.2  0.2  764  302           
03 25.03.17 220 (ЮЗ) 20000 м    3/0 верхняя 
[Cs]
+7.2 +3.4 77 +7  1026  -2.2  762  299           
06 25.03.17 170 (Ю) 20000 м    3/3 600 м 
[Cu med, cong]
+9.7 +3.6 66 +10  1025.6  -0.3  762  296  +4.8         
09 25.03.17 170 (Ю) 20000 м    5/5 600 м 
[Cu med, cong]
+13.3 -0.3 39 +13  1022.9  -2.5  760  292           
12 25.03.17 170 (Ю) 20000 м    3/3 600 м 
[Cu med, cong]
+14.3 -0.9 35 +14  1020.5  -2.2  758  290           
15 25.03.17 190 (Ю) 20000 м    3/3 600 м 
[Cu med, cong]
+12 -1.5 39 +11  1021.7  759  293    +14.8       
18 25.03.17 190 (Ю) 20000 м    ясно 
+6.3 +1 69 +5  1021.1  -0.9  758  299    +14.8       
21 25.03.17 190 (Ю) 20000 м    ясно 
+4.2 +0.5 77 +2  1021  -0.1  758  301           
00 26.03.17 180 (Ю) 20000 м    ясно 
+2.1 -0.5 83 +1  1020.9  -0.2  758  303           
03 26.03.17 тихо ()   20000 м    ясно 
+3.5 +1.2 85 +4  1020.5  -0.5  758  301           
06 26.03.17 170 (Ю) 20000 м    1/0 верхняя 
[Cs]
+9.6 +2.2 60 +8  1020.2  758  295  +2.1         
09 26.03.17 180 (Ю) 20000 м    1/1 600 м 
[Cu med, cong]
+14.5 +0.4 38 +14  1018.4  -1.6  757  289           
12 26.03.17 200 (Ю) 20000 м    3/3 600 м 
[Cu med, cong]
+15.9 +1.1 37 +15  1016.8  -1.6  755  287           
15 26.03.17 190 (Ю) 20000 м    4/0 верхняя 
[Cc]
+12.2 -1.7 38 +12  1016.7  -0.2  755  292    +16.6       
18 26.03.17 170 (Ю) 20000 м    ясно 
+7.1 -0.8 57 +8  1017.5  0.7  756  297    +16.6       
21 26.03.17 170 (Ю) 20000 м    ясно 
+5.1 -0.6 67 +5  1016.8  -0.8  755  299           
00 27.03.17 180 (Ю) 20000 м    ясно 
+2.9 -0.4 79 +2  1016.6  -0.4  762  304           
Время (UTC), дата Ветер
(°,м/с) 
Видим.   Явления Облачность Т
(°С)
Тd
(°С)
f(%) Тe
(°С)
Pmin
(гПа)
dP
(гПа)
Po
(мм)
O2
(г/м3)
Тmin Tmax R s Состояние
почвы

Для получения пояснительной информации подведите курсор к названию столбца.

ПОГОДА в Аккудуке - архив

Всё, что Вы хотите узнать о погоде в Аккудуке - удобно и подробно!

Выберите нужную дату (начиная с 1 января 2015* года) и нажмите кнопку "Найти".
Будут отображены архивные сводки погоды по пункту Аккудук, начиная с указанной даты.


Отображать данные в формате CSV (для использования в таблицах Excel)


Внимание! Наш архив погоды предназначен исключительно для личного некоммерческого использования в познавательных целях. Если Вам необходимы официальные справки о состоянии погоды (для производственных, юридических, коммерческих и т.п. целей), обращайтесь в органы Росгидромета.

*Примечание: данная дата относится к архиву по метеостанциям СССР (Россия, СНГ, Балтия).
Архив по метеостанциям Зарубежной Европы и Азии (кроме Китая) хранится 10 дней, по другим регионам земного шара (Китай, Африка, Америка, Австралия, Океания) - 1 день.

Аккудук - район местоположения метеостанции


Название, широта, долгота, высота метеостанции:
Аккудук 42.1°ш. 54.1°д. 78 м над ур. моря [Казахстан]

Дополнительная информация

В oтличие oт бoльшинства пoгoдных сайтoв мы публикуем пoдрoбную метеoинфoрмацию в детальнoм прoфессиoнальнoм фoрмате.

Характеристики температуры и влажнoсти вoздуха измеряются на высoте 2 м в тени вдали oт зданий и деревьев.
Скoрoсть ветра измеряется на высoте 10 м (на урoвне рoста челoвека скoрoсть ветра ниже в 1.5-2 раза). Если метеoстанция нахoдится в гoрoде или в лесу, тo скoрoсть ветра занижена на 2-4 м/с пo сравнению с oткрытым местoм. Скoрoсть ветра над акватoриями крупных рек и oзёр, а также на вершинах хoлмoв на 2-5 м/с выше, чем в oбычных услoвиях.
Атмoсфернoе давление в разных тoчках местнoсти мoжет значительнo oтличаться oт давления на метеoстанции, в зависимoсти oт услoвий рельефа (при пoдъёме на 10 м давление пoнижается примернo на 1 мм рт.ст.).